Air Resources Laboratory banner image
Air Resources Laboratory web site National Oceanic and Atmospheric Administration (NOAA)

id roundup


Office: BOI

ASUS45 KBOI 262110
RWRID

IDAHO REGIONAL WEATHER ROUNDUP
NATIONAL WEATHER SERVICE BOISE ID
300 PM MDT SAT MAY 26 2018

NOTE: "FAIR" INDICATES FEW OR NO CLOUDS BELOW 12000 FEET
WITH NO SIGNIFICANT WEATHER AND/OR OBSTRUCTIONS TO VISIBILITY

IDZ012-014-262200-
SOUTHWEST IDAHO


CITY           SKY/WX    TMP DP  RH WIND       PRES   REMARKS
BOISE          CLOUDY    72  49  44 NW17G26   29.86R
CALDWELL       PTSUNNY   74  50  42 W14       29.86F
MOUNTAIN HOME  CLOUDY    72  45  37 NW25      29.82F
$$

IDZ016-017-262200-
SOUTHCENTRAL IDAHO


CITY           SKY/WX    TMP DP  RH WIND       PRES   REMARKS
BURLEY         MOSUNNY   72  45  37 NW10      29.83F
JEROME         MOSUNNY   70  47  43 W12       29.87S
TWIN FALLS     PTSUNNY   65  46  50 W16       29.89R
$$

IDZ019>023-262200-
SOUTHEAST IDAHO


CITY           SKY/WX    TMP DP  RH WIND       PRES   REMARKS
IDAHO FALLS    SUNNY     74  41  30 W13       29.86F
POCATELLO      SUNNY     72  48  42 N9        29.85F
REXBURG        SUNNY     71  42  35 W7        29.87F
$$

IDZ006-010-011-018-031-032-262200-
CENTRAL IDAHO MOUNTAINS


CITY           SKY/WX    TMP DP  RH WIND       PRES   REMARKS
MCCALL         MOSUNNY   65  47  52 N17G24    29.90S
HAILEY         MOSUNNY   66  52  59 SE12      29.88F
STANLEY          N/A     59  41  51 NW10G17   29.94S
SALMON         CLOUDY    72  50  45 N9G23     29.80R
CHALLIS        CLOUDY    68  43  40 W13       29.84R
$$

IDZ002-004-006-007-026-262200-
NORTHERN IDAHO


CITY           SKY/WX    TMP DP  RH WIND       PRES   REMARKS
LEWISTON       CLOUDY    64  52  64 VRB5      29.99S
LOWELL           N/A     64  54  69 E6        29.95F
COEUR D'ALENE  SUNNY     69  46  43 W12G20    29.99R
MULLAN PASS    CLOUDY    44  44 100 NW6       30.03F
$$


ASUS45 KBOI 262110
RWRID

IDAHO REGIONAL WEATHER ROUNDUP
NATIONAL WEATHER SERVICE BOISE ID
300 PM MDT SAT MAY 26 2018

NOTE: "FAIR" INDICATES FEW OR NO CLOUDS BELOW 12000 FEET
WITH NO SIGNIFICANT WEATHER AND/OR OBSTRUCTIONS TO VISIBILITY

IDZ012-014-262200-
SOUTHWEST IDAHO


CITY           SKY/WX    TMP DP  RH WIND       PRES   REMARKS
BOISE          CLOUDY    72  49  44 NW17G26   29.86R
CALDWELL       PTSUNNY   74  50  42 W14       29.86F
MOUNTAIN HOME  CLOUDY    72  45  37 NW25      29.82F
$$

IDZ016-017-262200-
SOUTHCENTRAL IDAHO


CITY           SKY/WX    TMP DP  RH WIND       PRES   REMARKS
BURLEY         MOSUNNY   72  45  37 NW10      29.83F
JEROME         MOSUNNY   70  47  43 W12       29.87S
TWIN FALLS     PTSUNNY   65  46  50 W16       29.89R
$$

IDZ019>023-262200-
SOUTHEAST IDAHO


CITY           SKY/WX    TMP DP  RH WIND       PRES   REMARKS
IDAHO FALLS    SUNNY     74  41  30 W13       29.86F
POCATELLO      SUNNY     72  48  42 N9        29.85F
REXBURG        SUNNY     71  42  35 W7        29.87F
$$

IDZ006-010-011-018-031-032-262200-
CENTRAL IDAHO MOUNTAINS


CITY           SKY/WX    TMP DP  RH WIND       PRES   REMARKS
MCCALL         MOSUNNY   65  47  52 N17G24    29.90S
HAILEY         MOSUNNY   66  52  59 SE12      29.88F
STANLEY          N/A     59  41  51 NW10G17   29.94S
SALMON         CLOUDY    72  50  45 N9G23     29.80R
CHALLIS        CLOUDY    68  43  40 W13       29.84R
$$

IDZ002-004-006-007-026-262200-
NORTHERN IDAHO


CITY           SKY/WX    TMP DP  RH WIND       PRES   REMARKS
LEWISTON       CLOUDY    64  52  64 VRB5      29.99S
LOWELL           N/A     64  54  69 E6        29.95F
COEUR D'ALENE  SUNNY     69  46  43 W12G20    29.99R
MULLAN PASS    CLOUDY    44  44 100 NW6       30.03F
$$




Office: LKN ASUS65 KLKN 261848 RTPLKN Regional Temperature And Precipitation Table...Midday National Weather Service Elko NV 1148 AM PDT Sat May 26 2018 ***Automated Airport Stations*** Values represent lows over the last 12 hours... Highs over the last 24 hours and precipitation over the last 24 hours...ending at 10 AM PST/11 AM PDT today. .BR LKN 0526 P DH10/TAIRZX/DH10/TAIRZP/PPDRZZ/SFDRZZ/SDIRZZ : :ID Station Elev / Max / Min / Pcpn / :.................................................................... : EKO : Elko ASOS 5074 : 82 / 43 / 0.00 / ELY : Ely ASOS 6262 : 76 / 37 / 0.00 / P68 : Eureka ASOS 5936 : 77 / 35 / 0.00 / TPH : Tonopah ASOS 5395 : 75 / 46 / 0.00 / ENV : Wendover AWOS 4236 : 88 / 62 / 0.00 / WMC : Winnemucca ASOS 4314 : 80 / 43 / 0.10 / .END ***Manual synoptic reporting stations in north and central Nevada*** Values reflect the previous 24 hours ending at 10 AM PST/11 AM PDT *Snow stations may only report during periods of snowfall* .BR LKN 0526 P DH10/TAIRZX/TAIRZN/PPDRZZ/SFDRZZ/SDIRZZ : Snow Snow :ID Station Elev Max / Min / Pcpn / Fall / Dpth :.................................................................... : ELKN2 : Elko NWS Office 5235 : 65 / 41 / 0.00 / 0.0 / 0 EELN2 : Ely Snow 6487 : M / M / 0.00 / 0.0 / 0 EWIN2 : Winnemucca Snow 4355 : M / M / 0.49 / 0.0 / 0 .END ***Cooperative stations in north and central Nevada*** Values reflect the previous 24 hours Report time as indicated .BR LKN 0526 P DH04/TAIRZX/TAIRZN/PPDRZZ/SFDRZZ/SDIRZZ : Snow Snow :ID Station Elev Time / Max / Min / Pcpn / Fall / Dpth :.................................................................... : REON2 : Beowawe 49S 5740 7 AM: 75 / 41 / 0.00 / 0.0 / 0 BLEN2 : Blue Eagle Ranch 4768 8 AM: M / M / M / M / M EKAN2 : Eureka 6540 7 AM: 74 / 38 / 0.00 / 0.0 / M GBSN2 : Gabbs 1NE 4694 6 AM: 84 / 45 / 0.08 / 0.0 / 0 GIBN2 : Gibbs Ranch 5960 7 AM: M / M / M / M / M LENN2 : Great Basin NP 6824 8 AM: 72 / 42 / 0.00 / 0.0 / 0 JPTN2 : Jackpot 5295 10 AM: M / M / M / M / M JRGN2 : Jarbidge 6180 8 AM: M / M / M / M / M JIGN2 : Jiggs 8SSE 5800 7 AM: M / M / M / M / M KRVN2 : Kings River Vly 4240 8 AM: 77 / 43 / 0.30 / 0.0 / 0 LOIN2 : Lamoille 2N 5750 7 AM: 72 / 36 / T / 0.0 / 0 LUNN2 : Lund 5560 8 AM: 75 / 31 / 0.00 / 0.0 / 0 MCGN2 : McGill 6270 8 AM: 75 / 41 / 0.00 / 0.0 / 0 MONN2 : Montello 7NE 4828 8 AM: 83 / 35 / 0.00 / 0.0 / 0 MOMN2 : Moorman Ranch 6539 6 AM: 73 / 34 / 0.00 / 0.0 / 0 RBLN2 : Ruby Lake NWR 6010 7 AM: M / M / M / M / M RTHN2 : Ruth 6859 8 AM: 64 / 39 / 0.00 / 0.0 / 0 RNDN2 : Ryndon 5288 8 AM: M / M / M / M / M SFKN2 : South Fork SRA 5270 8 AM: M / M / M / M / M SUNN2 : Sunnyside 5297 7 AM: M / M / M / M / M TNPN2 : Tonopah 6010 7 AM: 68 / 41 / 0.00 / 0.0 / 0 WEHN2 : Wells 1SSW (DCP) 5676 7 AM: M / M / M / M / M PVYN2 : Wendover 16NW 4828 7 AM: 84 / 48 / 0.00 / 0.0 / 0 WGVN2 : Winnemucca 3SSW 4355 7 AM: 78 / 42 / 0.49 / 0.0 / 0 .END M = Missing data T = Trace amounts ASOS = Automated Surface Observing System AWOS = Automated Weather Observation System NWS = National Weather Service These data are preliminary and have not undergone final quality control (QC) by NCEI. Therefore, these data are subject to revision. Final and certified data can be accessed at the National Centers For Environmental Information (NCEI) - www.ncei.noaa.gov $$ DTK ASUS65 KLKN 261848 RTPLKN Regional Temperature And Precipitation Table...Midday National Weather Service Elko NV 1148 AM PDT Sat May 26 2018 ***Automated Airport Stations*** Values represent lows over the last 12 hours... Highs over the last 24 hours and precipitation over the last 24 hours...ending at 10 AM PST/11 AM PDT today. .BR LKN 0526 P DH10/TAIRZX/DH10/TAIRZP/PPDRZZ/SFDRZZ/SDIRZZ : :ID Station Elev / Max / Min / Pcpn / :.................................................................... : EKO : Elko ASOS 5074 : 82 / 43 / 0.00 / ELY : Ely ASOS 6262 : 76 / 37 / 0.00 / P68 : Eureka ASOS 5936 : 77 / 35 / 0.00 / TPH : Tonopah ASOS 5395 : 75 / 46 / 0.00 / ENV : Wendover AWOS 4236 : 88 / 62 / 0.00 / WMC : Winnemucca ASOS 4314 : 80 / 43 / 0.10 / .END ***Manual synoptic reporting stations in north and central Nevada*** Values reflect the previous 24 hours ending at 10 AM PST/11 AM PDT *Snow stations may only report during periods of snowfall* .BR LKN 0526 P DH10/TAIRZX/TAIRZN/PPDRZZ/SFDRZZ/SDIRZZ : Snow Snow :ID Station Elev Max / Min / Pcpn / Fall / Dpth :.................................................................... : ELKN2 : Elko NWS Office 5235 : 65 / 41 / 0.00 / 0.0 / 0 EELN2 : Ely Snow 6487 : M / M / 0.00 / 0.0 / 0 EWIN2 : Winnemucca Snow 4355 : M / M / 0.49 / 0.0 / 0 .END ***Cooperative stations in north and central Nevada*** Values reflect the previous 24 hours Report time as indicated .BR LKN 0526 P DH04/TAIRZX/TAIRZN/PPDRZZ/SFDRZZ/SDIRZZ : Snow Snow :ID Station Elev Time / Max / Min / Pcpn / Fall / Dpth :.................................................................... : REON2 : Beowawe 49S 5740 7 AM: 75 / 41 / 0.00 / 0.0 / 0 BLEN2 : Blue Eagle Ranch 4768 8 AM: M / M / M / M / M EKAN2 : Eureka 6540 7 AM: 74 / 38 / 0.00 / 0.0 / M GBSN2 : Gabbs 1NE 4694 6 AM: 84 / 45 / 0.08 / 0.0 / 0 GIBN2 : Gibbs Ranch 5960 7 AM: M / M / M / M / M LENN2 : Great Basin NP 6824 8 AM: 72 / 42 / 0.00 / 0.0 / 0 JPTN2 : Jackpot 5295 10 AM: M / M / M / M / M JRGN2 : Jarbidge 6180 8 AM: M / M / M / M / M JIGN2 : Jiggs 8SSE 5800 7 AM: M / M / M / M / M KRVN2 : Kings River Vly 4240 8 AM: 77 / 43 / 0.30 / 0.0 / 0 LOIN2 : Lamoille 2N 5750 7 AM: 72 / 36 / T / 0.0 / 0 LUNN2 : Lund 5560 8 AM: 75 / 31 / 0.00 / 0.0 / 0 MCGN2 : McGill 6270 8 AM: 75 / 41 / 0.00 / 0.0 / 0 MONN2 : Montello 7NE 4828 8 AM: 83 / 35 / 0.00 / 0.0 / 0 MOMN2 : Moorman Ranch 6539 6 AM: 73 / 34 / 0.00 / 0.0 / 0 RBLN2 : Ruby Lake NWR 6010 7 AM: M / M / M / M / M RTHN2 : Ruth 6859 8 AM: 64 / 39 / 0.00 / 0.0 / 0 RNDN2 : Ryndon 5288 8 AM: M / M / M / M / M SFKN2 : South Fork SRA 5270 8 AM: M / M / M / M / M SUNN2 : Sunnyside 5297 7 AM: M / M / M / M / M TNPN2 : Tonopah 6010 7 AM: 68 / 41 / 0.00 / 0.0 / 0 WEHN2 : Wells 1SSW (DCP) 5676 7 AM: M / M / M / M / M PVYN2 : Wendover 16NW 4828 7 AM: 84 / 48 / 0.00 / 0.0 / 0 WGVN2 : Winnemucca 3SSW 4355 7 AM: 78 / 42 / 0.49 / 0.0 / 0 .END M = Missing data T = Trace amounts ASOS = Automated Surface Observing System AWOS = Automated Weather Observation System NWS = National Weather Service These data are preliminary and have not undergone final quality control (QC) by NCEI. Therefore, these data are subject to revision. Final and certified data can be accessed at the National Centers For Environmental Information (NCEI) - www.ncei.noaa.gov $$ DTK